Estación de Los Colihues

Ultimos registro cada 15 minutos 31
Estación Fecha / Hora Temperatura Humedad Lluvia Velocidad Dirección Radiación Presion
31 Los Colihues 04-05-2026 07:30 10,3 100 0 0 42 0,6 1007,3
30 Los Colihues 04-05-2026 07:15 10,4 100 0 0 32 0,6 1007,4
29 Los Colihues 04-05-2026 07:00 10,5 100 0 0 8 0,6 1007,4
28 Los Colihues 04-05-2026 06:45 10,6 100 0 0 3 0,6 1007,7
27 Los Colihues 04-05-2026 06:30 10,7 100 0 0 358 0,6 1007,7
26 Los Colihues 04-05-2026 06:15 10,7 100 0 0 358 0,6 1007,6
25 Los Colihues 04-05-2026 06:00 10,7 100 0 0 358 0,6 1007,4
24 Los Colihues 04-05-2026 05:45 10,6 99,9 0 0 1 0,6 1007,4
23 Los Colihues 04-05-2026 05:30 10,7 99,8 0 0 18 0,6 1007,4
22 Los Colihues 04-05-2026 05:15 10,6 99,7 0 0 18 0,6 1007,1
21 Los Colihues 04-05-2026 05:00 10,6 99,7 0 0 18 0,6 1007,3
20 Los Colihues 04-05-2026 04:45 10,5 99,6 0 0 18 0,6 1007,3
19 Los Colihues 04-05-2026 04:30 10,3 99,5 0 0 18 0,6 1007,4
18 Los Colihues 04-05-2026 04:15 10,2 99,5 0 0 18 0,6 1006,9
17 Los Colihues 04-05-2026 04:00 10,1 99,4 0 0 18 0,6 1006,9
16 Los Colihues 04-05-2026 03:45 10,1 99,4 0 0 18 0,6 1007,2
15 Los Colihues 04-05-2026 03:30 9,9 99,3 0 0 18 0,6 1007,5
14 Los Colihues 04-05-2026 03:15 9,7 99,2 0 0 18 0,6 1007,6
13 Los Colihues 04-05-2026 03:00 9,9 99 0 0 18 0,6 1007,7
12 Los Colihues 04-05-2026 02:45 9,9 99 0 0 18 0,6 1007,7
11 Los Colihues 04-05-2026 02:30 10,2 99 0 0 18 0,6 1007,5
10 Los Colihues 04-05-2026 02:15 10 99 0 0 18 0,6 1007,6
9 Los Colihues 04-05-2026 02:00 10,1 98,4 0 0 18 0,6 1007,5
8 Los Colihues 04-05-2026 01:45 10,5 98,4 0 0 18 0,6 1008
7 Los Colihues 04-05-2026 01:30 10,7 98,5 0 0 18 0,6 1008,3
6 Los Colihues 04-05-2026 01:15 10,6 98,4 0 0 18 0,6 1008,7
5 Los Colihues 04-05-2026 01:00 10,4 98,2 0 0 18 0,6 1008,8
4 Los Colihues 04-05-2026 00:45 10,4 98 0 0 18 0,6 1009,1
3 Los Colihues 04-05-2026 00:30 10,4 97,8 0 0 32 0,6 1009,2
2 Los Colihues 04-05-2026 00:15 10,2 97,7 0 0 37 0,6 1008,8
1 Los Colihues 04-05-2026 00:00 10,2 97,3 0 0 34 0,6 1009